SCP
0 0 0 0 0 0 0 0 0 0 0 0 0 0 0 0 0 0 1 2 2 1 1 2 2 2 2 2 2 2 2 1 1 1 1 1 1 1 1 1 1 1 1 1 1 1 1 1 1
0 0 0 0 0 0 0 0 0 0 0 0 0 0 0 0 0 0 1 2 2 1 1 2 2 2 2 2 2 2 1 1 1 1 1 1 1 1 1 1 1 0 0 1 1 1 1 1 1
0 0 0 0 0 0 0 0 0 0 0 0 0 0 0 0 0 1 1 1 2 1 2 2 2 2 2 2 2 2 2 1 1 1 1 1 1 1 1 1 0 0 0 0 0 0 0 1 1
0 0 0 0 0 0 0 0 0 0 0 0 0 0 0 0 0 1 1 1 1 1 2 2 2 2 2 2 2 2 2 1 1 1 1 1 1 1 1 1 0 0 0 0 0 0 0 0 1
0 0 0 0 0 0 0 0 0 0 0 0 0 0 0 0 0 1 1 2 2 2 2 2 2 2 2 3 2 2 2 2 1 1 1 1 1 1 1 1 1 1 0 0 0 0 0 0 0
0 0 0 0 0 0 0 0 0 0 0 0 0 0 0 0 1 1 1 2 2 2 2 2 2 2 2 2 2 2 2 2 2 2 1 1 1 1 1 1 1 1 1 0 0 0 0 0 0
0 0 0 0 0 0 0 0 0 0 0 0 0 0 0 1 1 1 1 2 3 3 2 2 2 2 2 2 2 2 2 2 2 1 1 1 1 1 1 1 1 1 1 1 0 0 0 0 0
0 0 0 0 0 0 0 0 0 0 0 0 0 0 1 1 1 2 2 2 3 3 2 2 2 2 2 2 2 2 2 2 1 1 1 1 1 1 1 1 1 1 1 1 1 0 0 0 0
0 0 0 0 0 0 0 0 0 0 0 0 0 1 1 1 2 2 3 3 3 2 2 2 2 2 2 2 2 2 2 2 1 1 1 1 1 1 1 0 0 1 1 0 0 0 0 0 0
0 0 0 0 0 0 0 0 0 0 0 0 0 1 1 1 1 2 3 3 2 2 2 2 2 2 2 2 2 2 2 2 1 1 1 1 1 1 0 0 0 0 0 0 0 0 0 0 0
0 0 0 0 0 0 0 0 0 0 0 0 0 1 1 1 1 2 2 2 2 2 2 2 2 2 2 2 2 2 2 1 1 1 1 1 1 1 0 0 0 0 0 0 0 0 0 0 0
0 0 0 0 0 0 0 0 0 0 0 0 0 1 1 1 1 1 1 2 2 2 2 2 2 2 2 2 2 2 2 1 1 1 1 1 1 1 1 0 0 0 0 0 0 0 0 0 0
0 0 0 0 0 0 0 0 0 0 0 0 0 1 1 1 1 1 1 1 2 2 2 2 2 2 2 2 2 2 1 1 1 1 1 1 1 1 1 1 0 0 0 0 0 0 0 0 1
0 0 0 0 0 0 0 0 0 0 0 0 0 0 1 1 1 1 1 1 2 2 2 2 2 2 2 2 2 1 1 1 0 1 1 1 1 1 1 1 1 0 0 0 0 0 0 0 1
0 0 0 0 0 0 0 0 0 0 0 0 0 0 0 1 1 1 1 1 2 2 2 2 2 2 2 2 1 1 1 0 0 0 1 1 1 1 1 1 1 0 0 0 0 0 0 0 0
0 0 0 0 0 0 0 0 0 0 0 0 0 0 0 0 1 1 1 1 2 2 2 2 2 2 2 2 1 1 0 0 0 0 0 1 1 1 1 1 1 1 0 0 0 0 0 0 0
0 0 0 0 0 0 0 0 0 0 0 0 0 0 0 0 0 0 1 1 2 2 2 2 2 2 2 2 1 0 0 0 0 0 0 0 1 1 1 1 1 1 1 0 0 0 0 0 0
0 0 0 0 0 0 0 0 0 0 0 0 0 0 0 0 0 0 0 1 1 2 2 2 2 2 2 2 1 0 0 0 0 0 0 0 0 1 1 1 1 1 1 0 0 0 0 0 0
0 0 0 0 0 0 0 0 0 0 0 0 0 0 0 0 0 0 0 0 1 1 2 1 1 1 2 2 1 0 0 0 0 0 0 0 0 0 1 1 1 1 1 0 0 0 0 0 0
0 0 0 0 0 0 0 0 0 0 0 0 0 0 0 0 0 0 0 0 0 1 1 1 1 1 2 2 1 1 0 0 0 0 0 0 0 0 0 1 1 1 1 0 0 0 0 0 0
0 0 0 0 0 0 0 0 0 0 0 0 0 0 0 0 0 0 0 0 0 0 0 1 1 1 2 3 2 1 0 0 0 0 0 0 0 0 0 0 1 1 1 0 0 0 0 0 0
0 0 0 0 0 0 0 0 0 0 0 0 0 0 0 0 0 0 0 0 0 0 0 0 0 1 2 3 3 2 1 1 0 0 0 0 0 0 0 0 0 1 1 0 0 0 0 0 0
0 0 0 0 0 0 0 0 0 0 0 0 0 0 0 0 0 0 0 0 0 0 0 0 0 1 3 4 3 2 2 1 1 0 0 0 0 0 0 0 0 0 0 0 0 0 0 0 0
0 0 0 0 0 0 0 0 0 0 0 0 0 0 0 0 0 0 0 0 0 0 0 0 0 2 3 4 3 3 2 2 1 0 0 0 0 0 0 0 0 0 0 0 0 0 0 0 0
0 0 0 0 0 0 0 0 0 0 0 0 0 0 0 0 0 0 0 0 0 0 0 0 1 2 3 4 4 3 3 2 1 0 0 0 0 0 0 0 0 0 0 0 0 0 0 0 0
0 0 0 0 0 0 0 0 0 0 0 0 0 0 0 0 0 0 0 0 0 0 0 1 1 2 3 4 4 3 3 2 1 0 0 0 0 0 0 0 0 0 0 0 0 0 0 0 0
0 0 0 0 0 0 0 0 0 0 0 0 0 0 0 0 0 0 0 0 0 0 1 1 2 2 3 3 3 3 2 1 0 0 0 0 0 0 0 0 0 0 0 0 0 0 0 0 0
0 0 0 0 0 0 0 0 0 0 0 0 0 0 0 0 0 0 0 0 0 0 1 1 1 2 2 2 2 2 2 1 0 0 0 0 0 0 0 0 0 0 0 0 0 0 0 0 0
0 0 0 0 0 0 0 0 0 0 0 0 0 0 0 0 0 0 0 0 0 0 1 1 1 1 1 1 1 1 1 0 0 0 0 0 0 0 0 0 0 0 0 0 0 0 0 0 0
0 0 0 0 0 0 0 0 0 0 0 0 0 0 0 0 0 0 0 0 0 0 0 1 1 0 0 1 1 1 1 0 0 0 0 0 0 0 0 0 0 0 0 0 0 0 0 0 0
Wind_Speed
8 10 8 3 3 5 8 8 5 1 3 5 7 6 6 7 6 9 5 7 11 12 11 11 11 11 11 12 12 12 11 11 11 11 11 10 10 10 10 10 9 9 9 8 8 8 7 6 5
9 8 5 3 4 6 8 11 6 2 6 5 4 3 5 7 7 9 5 8 10 12 10 10 11 11 11 11 11 11 11 11 11 11 10 10 10 10 9 9 9 9 9 8 8 8 7 7 6
11 8 4 4 6 7 5 2 6 8 8 4 3 4 5 6 7 6 7 8 10 11 10 10 11 12 11 11 11 11 11 11 11 10 10 10 10 9 9 9 9 9 8 8 8 8 7 7 7
5 3 4 6 11 10 5 3 8 7 5 3 5 5 5 5 5 8 8 8 11 11 10 9 12 12 11 11 11 11 10 10 10 10 10 9 9 9 9 9 9 8 8 8 7 7 7 7 6
4 4 6 8 12 10 4 3 6 5 6 4 4 6 5 4 9 9 7 8 10 11 10 9 12 12 11 11 10 10 10 10 9 9 9 9 9 8 8 8 8 8 8 7 7 7 7 7 7
4 4 6 9 11 9 4 2 4 4 5 5 4 5 5 6 8 7 6 7 9 10 10 9 11 11 11 10 10 10 10 9 9 9 9 8 8 8 8 8 7 7 7 7 7 7 7 6 6
5 4 8 10 9 6 5 5 5 4 4 5 3 5 7 8 7 7 6 7 9 9 8 7 7 8 10 10 10 10 9 9 8 8 8 8 8 8 8 8 7 7 7 7 7 7 6 6 6
4 4 7 9 9 5 2 4 2 0 1 3 2 4 8 10 8 7 6 7 8 7 7 6 6 6 6 6 8 8 8 7 7 7 6 6 6 6 7 7 7 7 7 7 7 7 7 6 6
4 5 6 7 6 2 4 3 3 4 3 3 4 5 10 15 10 7 6 6 6 6 5 5 6 5 5 4 6 6 6 6 5 4 4 4 2 3 3 5 6 6 6 6 6 6 7 6 6
5 5 6 3 4 3 3 2 4 2 3 3 4 8 12 11 9 8 7 7 7 6 6 5 5 4 4 3 3 2 2 2 2 2 2 2 2 2 3 3 4 5 6 6 7 7 7 5 3
6 6 6 4 4 4 1 1 2 4 5 6 9 11 11 10 9 8 8 7 7 7 6 6 5 4 3 2 2 1 1 1 2 2 2 2 2 1 1 1 2 2 4 3 4 4 3 2 2
7 8 6 3 2 3 2 2 3 6 2 2 6 13 12 11 10 9 8 8 7 7 6 6 5 4 3 2 2 1 1 1 1 1 2 2 1 1 1 1 1 1 1 2 2 2 3 3 3
12 8 5 2 1 3 4 5 4 6 3 2 5 10 11 11 9 8 7 7 8 7 6 5 5 4 3 2 1 2 1 1 1 1 1 2 1 1 1 1 2 2 2 2 3 3 3 4 4
6 8 6 5 4 4 5 7 6 7 5 5 7 8 10 10 9 8 7 7 8 7 6 5 5 4 3 2 2 2 1 1 1 1 1 2 1 1 1 2 2 2 2 3 3 3 3 3 3
4 5 6 7 7 5 4 8 10 9 6 7 8 8 9 9 9 8 7 7 7 8 7 6 5 5 4 3 2 2 1 1 1 1 1 1 1 1 1 1 1 2 2 3 3 4 3 3 4
4 5 6 7 10 6 5 9 7 9 9 9 8 8 8 8 9 7 7 7 7 8 7 6 5 5 4 3 2 1 1 2 1 1 1 1 1 1 1 1 1 2 2 2 2 3 3 3 4
7 7 9 6 9 8 8 7 4 5 9 9 8 8 9 8 9 8 8 8 8 8 8 6 5 5 4 3 2 2 1 1 1 1 1 0 1 1 1 0 1 2 2 2 3 3 3 3 4
8 9 9 9 9 9 9 8 5 4 6 8 8 8 9 10 10 9 9 8 8 8 8 7 5 5 4 3 2 1 1 1 1 1 1 0 0 0 1 1 1 1 1 2 2 3 3 3 4
6 7 7 3 4 6 8 10 9 7 7 8 8 8 9 9 9 9 9 8 8 8 8 7 6 5 4 3 2 2 1 1 1 1 1 1 0 0 0 1 1 1 1 2 2 2 3 3 3
11 9 6 2 3 3 5 9 9 9 10 9 9 9 9 9 9 9 9 8 8 8 8 7 7 6 5 3 2 2 2 1 1 1 1 1 1 1 1 1 1 1 1 2 2 3 2 3 3
12 10 7 4 1 3 3 8 10 10 11 9 9 8 8 10 10 10 9 8 7 7 8 7 7 6 5 4 2 2 1 1 0 1 1 1 1 1 0 1 1 1 1 2 2 2 3 3 3
9 7 6 4 2 4 5 5 6 7 9 10 10 8 8 8 9 10 10 9 8 7 6 6 7 6 6 5 4 4 3 2 2 2 1 2 1 1 1 1 1 2 1 2 3 3 2 3 3
4 1 3 4 4 4 4 4 7 5 7 10 9 8 8 8 9 10 10 9 8 7 6 6 6 6 6 5 5 4 3 2 2 1 2 2 1 2 1 2 1 2 2 2 3 3 3 3 3
4 2 1 2 2 6 9 8 7 5 7 7 8 8 7 7 7 8 8 8 7 7 6 5 6 5 6 5 5 4 4 3 2 2 2 1 1 1 2 2 2 2 2 3 3 4 4 4 4
6 5 3 3 4 8 7 7 8 4 2 5 7 7 6 6 6 7 8 8 8 8 7 6 6 5 5 5 5 4 4 3 3 3 2 1 1 1 2 2 2 2 3 3 4 4 4 4 5
9 7 6 6 6 4 5 8 5 3 4 5 6 6 5 5 5 6 7 8 8 8 7 6 6 5 5 5 4 4 3 2 2 2 2 2 2 2 2 2 3 4 4 4 4 4 4 4 5
8 8 3 1 2 2 5 4 2 3 4 4 5 6 5 5 5 5 6 7 7 7 6 6 5 5 5 5 4 4 3 2 2 2 1 2 2 2 2 3 3 4 4 4 4 4 5 5 5
3 4 4 4 4 5 5 6 5 7 6 5 6 6 5 5 5 5 5 5 6 6 5 4 4 4 4 4 4 2 2 2 2 2 2 2 2 2 3 3 4 4 4 4 4 4 5 5 6
6 5 5 4 4 4 4 2 1 4 6 6 5 6 6 6 5 5 4 4 5 5 5 4 4 3 3 3 3 3 2 2 1 1 2 2 2 3 3 4 4 5 5 5 4 5 6 6 7
4 5 6 5 5 4 2 2 3 4 5 5 5 5 5 5 5 4 4 4 4 5 5 4 3 3 3 2 2 2 2 1 1 1 2 2 2 3 4 4 4 5 5 5 5 6 6 7 7
Wind_Direction
273 249 235 231 227 232 241 245 248 105 58 37 23 33 43 37 37 117 166 113 113 113 111 99 92 90 86 81 77 74 72 71 69 67 66 66 63 62 59 56 54 51 49 48 44 41 41 39 37
274 244 226 231 233 230 237 227 236 107 88 71 34 33 69 77 80 110 125 113 112 108 101 98 94 91 88 84 81 77 73 70 69 68 65 64 62 60 58 55 52 49 45 44 43 38 36 33 29
266 247 227 223 228 230 257 166 126 91 91 107 86 26 53 87 106 114 122 125 109 103 101 100 97 92 88 85 82 78 74 71 68 66 65 63 61 59 56 54 50 46 43 42 40 34 31 27 22
240 215 243 242 242 244 265 63 90 103 104 126 123 92 65 49 89 112 131 129 114 108 105 104 99 94 90 86 83 79 75 72 69 66 64 62 60 57 54 52 49 44 40 37 35 30 26 20 13
243 229 226 237 245 255 271 92 108 137 150 171 157 116 94 72 96 117 135 122 112 108 109 110 103 98 93 89 85 80 75 72 69 67 64 61 59 57 53 50 45 41 37 32 28 22 18 13 7
227 234 231 231 237 235 228 140 144 186 164 155 155 123 112 124 120 131 129 116 109 111 115 117 109 104 97 91 87 81 77 74 71 68 64 60 57 55 52 47 41 36 31 24 18 14 12 5 358
241 246 249 253 247 225 197 153 178 195 177 158 154 120 129 143 134 134 127 112 107 111 118 124 122 110 101 96 91 85 81 77 74 71 68 63 58 54 51 44 39 33 26 19 13 7 1 356 348
263 269 250 251 258 250 150 123 113 352 153 100 114 137 149 148 140 135 120 108 106 110 115 121 119 115 111 103 96 92 88 84 79 78 75 66 59 54 50 43 36 27 19 11 5 359 352 345 338
271 253 250 246 252 244 111 123 80 26 55 69 50 53 117 133 140 134 125 118 119 121 117 113 111 109 108 113 108 104 99 97 90 84 80 62 55 49 48 47 30 20 11 2 356 348 341 332 326
219 238 244 296 344 9 104 132 132 150 167 150 101 90 115 133 145 152 155 152 145 140 130 117 110 110 111 112 114 114 104 102 87 75 61 50 42 45 45 35 18 7 360 351 346 339 334 330 311
208 239 258 282 7 353 11 156 160 199 206 193 166 149 145 152 160 170 169 157 149 141 132 122 116 112 106 107 111 102 99 88 69 61 48 45 39 35 32 12 2 348 345 335 331 323 315 311 307
233 241 262 288 13 327 286 237 219 227 234 72 144 152 156 168 176 178 171 156 144 137 134 126 125 120 115 109 109 112 95 85 73 61 51 49 35 24 5 4 345 345 334 332 330 322 322 324 323
234 251 248 246 238 278 283 264 257 244 229 113 123 149 165 176 179 178 169 154 144 139 136 134 131 128 125 120 125 105 100 91 82 59 46 56 50 22 3 357 355 349 345 343 333 328 329 327 324
236 243 242 227 222 233 243 251 239 237 199 167 165 173 178 182 180 177 170 159 150 145 143 138 137 135 132 130 124 117 108 99 85 74 60 48 56 31 8 4 352 351 343 335 327 323 325 317 313
271 260 245 223 211 211 217 246 229 226 199 189 185 185 185 185 183 180 169 161 153 148 145 144 146 140 141 138 134 124 135 115 99 91 75 58 54 33 14 4 350 340 332 331 329 328 327 322 320
227 231 236 213 196 184 194 246 232 204 198 203 194 189 187 188 185 178 165 160 151 147 147 150 150 145 146 140 146 145 131 115 122 120 87 63 52 33 14 10 335 330 337 335 330 335 333 327 321
209 220 222 209 188 173 200 246 231 187 189 199 195 189 185 187 187 178 168 160 154 152 150 151 148 152 150 145 149 147 134 133 140 126 104 71 41 24 29 341 322 346 344 336 328 340 331 322 317
202 216 222 209 185 186 207 238 242 204 194 203 203 194 187 189 188 176 165 158 154 151 149 151 151 153 146 144 145 139 135 149 136 137 141 147 318 24 18 331 341 342 334 326 320 320 322 311 305
257 246 249 228 155 194 223 241 245 227 213 212 210 202 193 191 181 167 159 155 153 154 154 157 158 159 150 153 157 156 165 165 142 159 158 184 249 335 344 330 319 321 307 297 305 312 316 317 316
252 257 259 258 155 209 248 256 250 233 219 212 210 206 195 186 176 166 161 161 164 163 161 162 163 164 160 163 166 166 162 178 181 188 187 203 225 265 304 298 283 290 299 311 315 318 312 315 335
233 237 238 239 197 238 272 278 239 230 218 208 205 201 192 182 178 170 166 166 162 164 164 168 166 163 162 158 150 139 115 114 153 199 205 210 210 231 255 272 279 286 283 285 297 301 301 302 309
232 238 234 226 216 246 197 270 255 216 208 204 200 194 192 181 174 171 168 169 169 165 158 160 161 160 161 157 161 167 173 191 212 201 211 223 207 212 227 255 270 275 278 280 284 293 287 285 292
213 233 226 223 226 264 230 249 269 211 214 203 192 188 188 179 173 169 169 169 163 155 156 159 160 161 162 166 170 176 188 204 202 191 203 224 220 212 224 239 252 269 269 268 276 282 277 270 269
154 138 204 241 221 246 217 212 260 215 209 189 180 177 179 170 162 158 156 152 149 149 153 158 162 165 165 170 176 182 188 193 194 206 208 225 229 232 238 251 253 260 264 265 266 267 269 266 268
175 152 156 189 213 238 201 205 240 212 174 164 162 165 164 153 153 153 153 156 157 157 159 163 166 172 170 172 181 185 191 191 197 202 205 222 236 249 245 262 261 265 264 266 267 266 266 265 267
195 187 179 188 205 220 188 216 235 154 109 103 115 123 128 137 145 149 153 155 154 155 159 165 171 174 174 175 184 185 186 188 195 201 208 228 236 243 246 252 259 266 269 274 272 269 264 266 262
180 212 230 238 267 231 217 212 207 138 128 127 128 127 138 142 140 143 144 147 148 151 157 164 168 174 177 177 180 185 185 189 191 202 220 236 246 260 263 264 265 268 269 270 271 267 268 265 262
214 186 173 189 203 228 223 207 201 174 172 163 153 148 147 145 143 140 139 143 146 148 150 155 163 175 175 174 182 183 183 184 185 200 230 249 260 267 266 268 272 274 274 274 273 272 268 271 271
187 199 194 198 225 208 218 227 4 154 153 149 142 141 145 145 145 141 140 141 140 140 146 152 163 160 165 178 174 170 179 175 189 212 233 247 261 262 264 269 272 274 276 277 276 273 276 275 277
210 202 186 186 218 218 234 254 355 84 105 114 115 120 123 127 130 135 137 137 138 142 148 156 165 167 166 166 165 165 166 173 208 235 251 256 265 268 270 273 275 277 281 279 276 277 278 276 278